Auburn, CA

3:23 AM PST on December 17, 2017 (GMT -0800)
Auburn Municipal

Weather History for KAUN - August, 2014

Change the Weather History Date:

Friday, August 29, 2014

  Actual Average Record
Temperature  
Mean Temperature 79 °F -  
Max Temperature 87 °F 90 °F 106 °F (1950)
Min Temperature 71 °F 60 °F 48 °F (1957)
Cooling Degree Days 14    
Growing Degree Days 29 (Base 50)    
Moisture  
Dew Point 50 °F    
Average Humidity 39    
Maximum Humidity 50    
Minimum Humidity 28    
Precipitation  
Precipitation 0.00 in - - ()
Sea Level Pressure  
Sea Level Pressure 29.92 in    
Wind  
Wind Speed 6 mph (ESE)    
Max Wind Speed 10 mph    
Max Gust Speed -    
Visibility 10 miles    
Events      
Averages and records for this station are not official NWS values.
T = Trace of Precipitation, MM = Missing Value Source: NWS Daily Summary

Daily Weather History Graph

Daily Weather History Graph

Search for Another Location

Airport or City:

Trip Planner

Search our weather history database for the weather conditions in past years. The results will help you decide how hot, cold, wet, or windy it might be!

Date:

Astronomy

Aug. 29, 2014 Rise Set
Actual Time 6:30 AM PDT 7:39 PM PDT
Civil Twilight 6:03 AM PDT 8:06 PM PDT
Nautical Twilight 5:30 AM PDT 8:39 PM PDT
Astronomical Twilight 4:55 AM PDT 9:13 PM PDT
Moon 10:22 AM PDT (8/29) 9:42 PM PDT (8/29)
Length of Visible Light 14h 03m
Length of Day
13h 08m
Waxing Crescent, 16% of the Moon is Illuminated
Aug 29
Waxing Crescent
Sep 2
First Quarter
Sep 8
Full
Sep 15
Last Quarter
Sep 23
New

Hourly Weather History & Observations

Time (PDT) Temp. Heat Index Dew Point Humidity Pressure Visibility Wind Dir Wind Speed Gust Speed Precip Events Conditions
12:15 AM 73.4 °F - 48.2 °F 41% 29.96 in 10.0 mi East 5.8 mph - N/A   Clear
12:35 AM 73.4 °F - 48.2 °F 41% 29.96 in 10.0 mi East 6.9 mph - N/A   Clear
12:55 AM 75.2 °F - 48.2 °F 38% 29.96 in 10.0 mi East 8.1 mph - N/A   Clear
1:15 AM 75.2 °F - 48.2 °F 38% 29.95 in 10.0 mi East 6.9 mph - N/A   Clear
1:35 AM 73.4 °F - 48.2 °F 41% 29.95 in 10.0 mi East 8.1 mph - N/A   Clear
1:55 AM 73.4 °F - 48.2 °F 41% 29.94 in 10.0 mi ESE 8.1 mph - N/A   Clear
2:15 AM 73.4 °F - 48.2 °F 41% 29.94 in 10.0 mi East 9.2 mph - N/A   Clear
2:35 AM 73.4 °F - 48.2 °F 41% 29.94 in 10.0 mi East 9.2 mph - N/A   Clear
2:55 AM 73.4 °F - 48.2 °F 41% 29.94 in 10.0 mi East 9.2 mph - N/A   Clear
3:15 AM 73.4 °F - 48.2 °F 41% 29.94 in 10.0 mi East 9.2 mph - N/A   Clear
3:35 AM 71.6 °F - 48.2 °F 43% 29.94 in 10.0 mi East 8.1 mph - N/A   Clear
3:55 AM 73.4 °F - 48.2 °F 41% 29.93 in 10.0 mi East 9.2 mph - N/A   Clear
4:15 AM 71.6 °F - 48.2 °F 43% 29.94 in 10.0 mi East 8.1 mph - N/A   Clear
4:35 AM 71.6 °F - 48.2 °F 43% 29.92 in 10.0 mi East 9.2 mph - N/A   Clear
4:55 AM 71.6 °F - 48.2 °F 43% 29.93 in 10.0 mi East 9.2 mph - N/A   Clear
5:15 AM 71.6 °F - 46.4 °F 41% 29.92 in 10.0 mi East 10.4 mph - N/A   Clear
5:35 AM 71.6 °F - 46.4 °F 41% 29.93 in 10.0 mi East 10.4 mph - N/A   Clear
5:55 AM 73.4 °F - 46.4 °F 38% 29.92 in 10.0 mi East 8.1 mph - N/A   Clear
6:15 AM 71.6 °F - 46.4 °F 41% 29.92 in 10.0 mi East 8.1 mph - N/A   Clear
6:35 AM 71.6 °F - 46.4 °F 41% 29.92 in 10.0 mi East 9.2 mph - N/A   Clear
6:55 AM 73.4 °F - 46.4 °F 38% 29.93 in 10.0 mi East 9.2 mph - N/A   Clear
7:15 AM 73.4 °F - 46.4 °F 38% 29.94 in 10.0 mi Calm Calm - N/A   Clear
7:35 AM 73.4 °F - 46.4 °F 38% 29.94 in 10.0 mi ESE 4.6 mph - N/A   Clear
7:55 AM 75.2 °F - 44.6 °F 34% 29.94 in 10.0 mi East 9.2 mph - N/A   Clear
8:15 AM 75.2 °F - 44.6 °F 34% 29.94 in 10.0 mi East 9.2 mph - N/A   Clear
8:35 AM 75.2 °F - 44.6 °F 34% 29.93 in 10.0 mi East 9.2 mph - N/A   Clear
8:55 AM 75.2 °F - 44.6 °F 34% 29.93 in 10.0 mi East 8.1 mph - N/A   Clear
9:15 AM 80.6 °F - 44.6 °F 28% 29.93 in 10.0 mi East 8.1 mph - N/A   Clear
9:35 AM 80.6 °F - 46.4 °F 30% 29.94 in 10.0 mi East 3.5 mph - N/A   Clear
9:55 AM 80.6 °F - 51.8 °F 37% 29.96 in 10.0 mi West 8.1 mph - N/A   Clear
10:15 AM 77.0 °F - 48.2 °F 36% 29.97 in 10.0 mi West 8.1 mph - N/A   Clear
10:35 AM 75.2 °F - 51.8 °F 44% 29.96 in 10.0 mi NNW 4.6 mph - N/A   Clear
10:55 AM 77.0 °F - 51.8 °F 41% 29.96 in 10.0 mi Calm Calm - N/A   Clear
11:15 AM 80.6 °F - 51.8 °F 37% 29.95 in 10.0 mi Calm Calm - N/A   Clear
11:35 AM 80.6 °F - 51.8 °F 37% 29.95 in 10.0 mi Calm Calm - N/A   Partly Cloudy
11:55 AM 80.6 °F - 51.8 °F 37% 29.95 in 10.0 mi WSW 8.1 mph - N/A   Clear
12:15 PM 77.0 °F - 53.6 °F 44% 29.97 in 10.0 mi West 5.8 mph - N/A   Clear
12:35 PM 77.0 °F - 53.6 °F 44% 29.95 in 10.0 mi Calm Calm - N/A   Partly Cloudy
12:55 PM 78.8 °F - 53.6 °F 42% 29.94 in 10.0 mi Calm Calm - N/A   Partly Cloudy
1:15 PM 80.6 °F 80.3 °F 53.6 °F 39% 29.94 in 10.0 mi Calm Calm - N/A   Partly Cloudy
1:35 PM 82.4 °F - 51.8 °F 35% 29.93 in 10.0 mi Calm Calm - N/A   Partly Cloudy
1:55 PM 84.2 °F - 51.8 °F 33% 29.92 in 10.0 mi Calm Calm - N/A   Clear
2:15 PM 86.0 °F - 51.8 °F 31% 29.92 in 10.0 mi Calm Calm - N/A   Partly Cloudy
2:55 PM 87.8 °F - 51.8 °F 29% 29.90 in 10.0 mi SW 4.6 mph - N/A   Partly Cloudy
3:15 PM 87.8 °F - 51.8 °F 29% 29.91 in 10.0 mi WSW 8.1 mph - N/A   Clear
3:35 PM 84.2 °F 82.8 °F 53.6 °F 35% 29.91 in 10.0 mi WSW 9.2 mph - N/A   Clear
3:55 PM 84.2 °F 82.8 °F 53.6 °F 35% 29.91 in 10.0 mi West 4.6 mph - N/A   Clear
4:15 PM 84.2 °F 82.8 °F 53.6 °F 35% 29.91 in 10.0 mi West 4.6 mph - N/A   Clear
4:35 PM 82.4 °F 81.4 °F 53.6 °F 37% 29.90 in 10.0 mi WSW 3.5 mph - N/A   Clear
4:55 PM 84.2 °F 82.8 °F 53.6 °F 35% 29.90 in 10.0 mi Calm Calm - N/A   Clear
5:15 PM 84.2 °F 82.8 °F 53.6 °F 35% 29.90 in 10.0 mi Calm Calm - N/A   Clear
5:35 PM 84.2 °F 82.8 °F 53.6 °F 35% 29.90 in 10.0 mi Calm Calm - N/A   Clear
5:55 PM 84.2 °F 82.8 °F 53.6 °F 35% 29.90 in 10.0 mi Calm Calm - N/A   Clear
6:15 PM 84.2 °F - 51.8 °F 33% 29.90 in 10.0 mi Calm Calm - N/A   Clear
6:35 PM 82.4 °F - 50.0 °F 32% 29.89 in 10.0 mi Calm Calm - N/A   Clear
6:55 PM 84.2 °F - 50.0 °F 30% 29.89 in 10.0 mi Calm Calm - N/A   Clear
7:15 PM 82.4 °F 81.4 °F 53.6 °F 37% 29.89 in 10.0 mi Calm Calm - N/A   Clear
7:35 PM 78.8 °F - 53.6 °F 42% 29.90 in 10.0 mi Calm Calm - N/A   Clear
7:55 PM 78.8 °F - 53.6 °F 42% 29.89 in 10.0 mi ESE 4.6 mph - N/A   Clear
8:15 PM 78.8 °F - 51.8 °F 39% 29.89 in 10.0 mi East 4.6 mph - N/A   Clear
8:35 PM 78.8 °F - 53.6 °F 42% 29.89 in 10.0 mi Calm Calm - N/A   Clear
8:55 PM 78.8 °F - 53.6 °F 42% 29.89 in 10.0 mi SE 4.6 mph - N/A   Clear
9:15 PM 78.8 °F - 53.6 °F 42% 29.90 in 10.0 mi SE 4.6 mph - N/A   Clear
9:35 PM 78.8 °F - 53.6 °F 42% 29.91 in 10.0 mi Calm Calm - N/A   Clear
9:55 PM 75.2 °F - 53.6 °F 47% 29.90 in 10.0 mi Calm Calm - N/A   Clear
10:15 PM 73.4 °F - 51.8 °F 47% 29.91 in 10.0 mi Calm Calm - N/A   Clear
10:35 PM 73.4 °F - 53.6 °F 50% 29.90 in 10.0 mi Calm Calm - N/A   Clear
10:55 PM 73.4 °F - 53.6 °F 50% 29.89 in 10.0 mi SE 4.6 mph - N/A   Clear
11:15 PM 73.4 °F - 53.6 °F 50% 29.89 in 10.0 mi ESE 6.9 mph - N/A   Clear
11:35 PM 75.2 °F - 53.6 °F 47% 29.89 in 10.0 mi ESE 5.8 mph - N/A   Clear
11:55 PM 73.4 °F - 53.6 °F 50% 29.90 in 10.0 mi ESE 5.8 mph - N/A   Clear